Overview Statistics Trail Chart Weather Telemetry Raw packets
 

This is the latest recevied weather packets stored in our database for station/object KB8TTR. If no packets are shown the sender has not sent any weather packets the latest 10 day(s).

<< 79 80 81 82 83 84 85 >>
Time Temp. Humidity Pressure Rain* Wind** Luminosity Snow
1788040040 27.22° C 55% 1021.6 hPa 0 mm - 122 W/m² -
1788039735 27.78° C 54% 1021.6 hPa 0 mm - 114 W/m² -
1788039435 27.78° C 53% 1021.4 hPa 0 mm - 171 W/m² -
1788039130 27.22° C 54% 1021.3 hPa 0 mm - 222 W/m² -
1788038826 27.22° C 52% 1021.6 hPa 0 mm - 201 W/m² -
1788038521 27.78° C 55% 1021.6 hPa 0 mm - 177 W/m² -
1788038220 27.22° C 55% 1021.5 hPa 0 mm - 213 W/m² -
1788037915 27.22° C 53% 1021.6 hPa 0 mm - 247 W/m² -
1788037609 27.78° C 52% 1021.6 hPa 0 mm - 222 W/m² -
1788037305 27.78° C 53% 1021.7 hPa 0 mm - 217 W/m² -
1788037004 27.78° C 54% 1021.5 hPa 0 mm - 235 W/m² -
1788036700 27.22° C 54% 1021.8 hPa 0 mm - 263 W/m² -
1788036397 27.22° C 55% 1021.6 hPa 0 mm - 278 W/m² -
1788036097 27.22° C 54% 1021.7 hPa 0 mm - 261 W/m² -
1788035796 27.22° C 54% 1021.8 hPa 0 mm - 259 W/m² -
1788035492 27.22° C 54% 1021.8 hPa 0 mm - 262 W/m² -
1788035187 27.22° C 54% 1021.8 hPa 0 mm - 248 W/m² -
1788034883 27.78° C 52% 1021.8 hPa 0 mm - 260 W/m² -
1788034578 27.78° C 53% 1022.1 hPa 0 mm - 263 W/m² -
1788034275 27.78° C 51% 1021.9 hPa 0 mm - 293 W/m² -
1788033974 27.78° C 52% 1021.9 hPa 0 mm - 332 W/m² -
1788033670 27.22° C 54% 1022 hPa 0 mm - 283 W/m² -
1788033368 27.78° C 52% 1022.1 hPa 0 mm - 286 W/m² -
1788033064 27.78° C 51% 1022.2 hPa 0 mm - 299 W/m² -
1788032764 28.33° C 50% 1022.4 hPa 0 mm - 338 W/m² -

* Rain latest hour (hover to see other rain measurements)
** Current wind speed in m/s (hover to see current wind gust speed)